STARLINK-3766, 52296

Orbit data source: Space-Track

STARLINK-3766, 52296 is a payload satellite owned by SpaceX/Seattle (US) in LEO that was launched on Thu, 21 Apr 2022 UTC via an FALCON 9 launch vehicle from the Air Force Eastern Test Range (AFETR). Payload-class satellites include a variety of spacecraft equipped with specific instruments for various scientific and technological missions. These include communications satellites like Starlink; space stations such as the ISS; scientific satellites like the Hubble; Earth observation satellites from companies like Planet Labs, Umbra, and HawkEye 360; GPS; miniature CubeSats for education and research; and military/defense satellites.

Loading next visibility...
Identifier
52296, 2022-041AM
Orbit
LEO
Country
Flag of USUS
Related business
Manufacturer
SpaceX/Seattle
Mission
Operational Commercial Communications
Bus & Motor
STARLINK, Unknown motor
Mass
297 kg wet, ~275 kg dry
Launch date (UTC)
2022-04-21 (4 years ago)
Launch vehicle
FALCON 9
Launch site
Air Force Eastern Test Range (AFETR)
Object type
Payload
Rocket body
Debris
Shape & HBR
Box + 1 Pan, 10.1 m
Radar Cross Section
11.087 m², Large (>1 m²)

Expand to show TLE details & history
Last TLE update: 1 day ago

TLE from 1 day ago
0 STARLINK-3766
1 52296U 22041AM  26254.49898178  .00000644  00000-0  30195-4 0  9992
2 52296  53.1614 333.4502 0001178  77.0050 283.1084 15.34391399242711
Epoch: 2026-09-11T11:58Z
TLE epoch observation values (Epoch: 2026-09-11T11:58:32.025Z)
Latitude
-0.00004°
Longitude
163.29527°
Altitude
463.448 km
Speed
7.636 km/s
True Right ascension
22h 13m 48s
True Declination
0° 00' 00"
Sunlit
Object was in full shadow at epoch
Visualization orbit readout
Latitude
Unknown
Longitude
Unknown
Altitude
Unknown
Speed
Unknown
Apparent Right ascension
Unknown
Apparent Declination
Unknown
Sunlit
N/A
Visualization observer readout
Local Sidereal Time
10:14:55
Azimuth
Unknown
Elevation
Unknown
Doppler factor
Unknown
Orbital elements
Apogee altitude
463.791 km
Perigee altitude
462.18 km
Semi-major axis
6,841.122 km
Eccentricity
0.00012
Inclination
53.1614°
RAAN
333.4502°
Arg. of periapsis
77.005°
True anomaly
283.09525°
Mean anomaly
283.1084°
Eccentric anomaly
283.10183°
Mean motion
3.83577 °/min
Orbital period
93.85 mins
BSTAR
0.000030195
Loading maneuver chart data...
Computing Atmospheric mass density...
Loading historical data...
Loading historical data...
Loading historical data...
Loading historical data...
Loading historical data...
Loading historical data...
Loading historical data...

Documentation

Showing up to 5 results
|